Wetterdaten: Dienstag, 02.06.2015
Datum Zeit Temp. A. Feuchte A. Luftdruck Regen Wind Richtung Richtung Sonnenschein ET UV Solar Taupunkt Windchill Windben Empfang
02.06.2015 00:00 16,5 C 79 % 1016,5 hPa 0,0 l/m 0,6 km/h (0 Bft) S 180 0 min 0,000 mm 0,0 UV-I 0 W/m 12,8 C 16,5 C 4,0 km/h (1 Bft) 0,00 %
02.06.2015 01:00 15,6 C 81 % 1017,0 hPa 0,0 l/m 3,2 km/h (1 Bft) O 90 0 min 0,000 mm 0,0 UV-I 0 W/m 12,3 C 15,6 C 4,0 km/h (1 Bft) 0,00 %
02.06.2015 02:00 14,9 C 85 % 1017,1 hPa 0,0 l/m 0,6 km/h (0 Bft) N 359 0 min 0,000 mm 0,0 UV-I 0 W/m 12,4 C 14,9 C 4,0 km/h (1 Bft) 0,00 %
02.06.2015 03:00 15,1 C 83 % 1017,1 hPa 0,0 l/m 0,3 km/h (0 Bft) S 190 0 min 0,000 mm 0,0 UV-I 0 W/m 12,2 C 15,1 C 4,0 km/h (1 Bft) 0,00 %
02.06.2015 04:00 15,0 C 83 % 1017,4 hPa 0,0 l/m 0,0 km/h (0 Bft) S-SW 200 0 min 0,000 mm 0,0 UV-I 0 W/m 12,1 C 15,0 C 0,0 km/h (0 Bft) 0,00 %
02.06.2015 05:00 15,5 C 87 % 1017,4 hPa 0,0 l/m 0,0 km/h (0 Bft) SW 230 0 min 0,000 mm 0,0 UV-I 0 W/m 13,3 C 15,5 C 0,0 km/h (0 Bft) 0,00 %
02.06.2015 06:00 14,7 C 88 % 1017,2 hPa 0,0 l/m 0,0 km/h (0 Bft) S 180 60 min 0,000 mm 0,0 UV-I 74 W/m 12,7 C 14,7 C 0,0 km/h (0 Bft) 0,00 %
02.06.2015 07:00 17,0 C 77 % 1016,8 hPa 0,0 l/m 0,0 km/h (0 Bft) S 180 0 min 0,000 mm 1,0 UV-I 129 W/m 12,9 C 17,0 C 0,0 km/h (0 Bft) 0,00 %
02.06.2015 08:00 18,2 C 74 % 1017,7 hPa 0,0 l/m 0,0 km/h (0 Bft) S 180 0 min 0,000 mm 1,0 UV-I 165 W/m 13,5 C 18,2 C 0,0 km/h (0 Bft) 0,00 %
02.06.2015 09:00 21,3 C 63 % 1017,9 hPa 0,0 l/m 0,0 km/h (0 Bft) O-SO 120 60 min 0,000 mm 3,0 UV-I 641 W/m 14,0 C 21,3 C 0,0 km/h (0 Bft) 0,00 %
02.06.2015 10:00 23,3 C 54 % 1018,3 hPa 0,0 l/m 2,1 km/h (1 Bft) W 270 60 min 0,000 mm 3,0 UV-I 420 W/m 13,5 C 23,3 C 4,0 km/h (1 Bft) 0,00 %
02.06.2015 11:00 23,2 C 52 % 1018,7 hPa 0,0 l/m 0,0 km/h (0 Bft) O-SO 120 0 min 0,000 mm 2,0 UV-I 374 W/m 12,8 C 23,2 C 0,0 km/h (0 Bft) 0,00 %
02.06.2015 12:00 23,4 C 58 % 1018,3 hPa 0,0 l/m 2,1 km/h (1 Bft) O-SO 110 60 min 0,000 mm 6,0 UV-I 865 W/m 14,7 C 23,4 C 4,0 km/h (1 Bft) 0,00 %
02.06.2015 13:00 24,4 C 49 % 1017,8 hPa 0,0 l/m 0,0 km/h (0 Bft) S-SO 150 60 min 0,000 mm 6,0 UV-I 927 W/m 13,0 C 24,4 C 0,0 km/h (0 Bft) 0,00 %
02.06.2015 14:00 25,2 C 47 % 1017,4 hPa 0,0 l/m 1,8 km/h (1 Bft) S-SO 150 60 min 0,000 mm 3,0 UV-I 514 W/m 13,1 C 25,2 C 4,0 km/h (1 Bft) 0,00 %
02.06.2015 15:00 26,7 C 42 % 1016,7 hPa 0,0 l/m 0,0 km/h (0 Bft) S 180 60 min 0,000 mm 5,0 UV-I 962 W/m 12,7 C 26,7 C 0,0 km/h (0 Bft) 0,00 %
02.06.2015 16:00 27,9 C 38 % 1016,3 hPa 0,0 l/m 0,0 km/h (0 Bft) SO 130 60 min 0,000 mm 4,0 UV-I 942 W/m 12,2 C 27,9 C 0,0 km/h (0 Bft) 0,00 %
02.06.2015 17:00 26,4 C 42 % 1016,5 hPa 0,0 l/m 1,4 km/h (1 Bft) W-SW 250 60 min 0,000 mm 2,0 UV-I 852 W/m 12,4 C 26,4 C 4,0 km/h (1 Bft) 0,00 %
02.06.2015 18:00 25,8 C 46 % 1016,1 hPa 0,0 l/m 4,0 km/h (1 Bft) O 90 60 min 0,000 mm 1,0 UV-I 514 W/m 13,3 C 25,8 C 4,0 km/h (1 Bft) 0,00 %
02.06.2015 19:00 25,5 C 45 % 1016,2 hPa 0,0 l/m 3,2 km/h (1 Bft) O-SO 120 60 min 0,000 mm 1,0 UV-I 579 W/m 12,7 C 25,5 C 4,0 km/h (1 Bft) 0,00 %
02.06.2015 20:00 24,7 C 47 % 1016,7 hPa 0,0 l/m 0,3 km/h (0 Bft) O-SO 120 60 min 0,000 mm 0,0 UV-I 253 W/m 12,6 C 24,7 C 4,0 km/h (1 Bft) 0,00 %
02.06.2015 21:00 21,9 C 59 % 1017,4 hPa 0,0 l/m 0,0 km/h (0 Bft) S 180 0 min 0,000 mm 0,0 UV-I 0 W/m 13,5 C 21,9 C 0,0 km/h (0 Bft) 0,00 %
02.06.2015 22:00 19,4 C 66 % 1018,2 hPa 0,0 l/m 0,0 km/h (0 Bft) S 180 0 min 0,000 mm 0,0 UV-I 0 W/m 12,9 C 19,4 C 0,0 km/h (0 Bft) 0,00 %
02.06.2015 23:00 17,8 C 72 % 1018,5 hPa 0,0 l/m 0,0 km/h (0 Bft) S 180 0 min 0,000 mm 0,0 UV-I 0 W/m 12,7 C 17,8 C 0,0 km/h (0 Bft) 0,00 %
_ Min-Zeit 06:00 16:00 18:00 - 04:00 - - - - - - 04:00 06:00 04:00 00:00
Minimum _ 14,7 C 38 % 1016,1 hPa - 0,0 km/h (0 Bft) - - - - - - 12,1 C 14,7 C 0,0 km/h (0 Bft) 0,00 %
_ Max-Zeit 16:00 06:00 11:00 00:00 18:00 - - 06:00 00:00 12:00 15:00 12:00 16:00 00:00 00:00
Maximum _ 27,9 C 88 % 1018,7 hPa 0,0 l/m 4,0 km/h
O (1 Bft)
- - 60 min 0,000 mm 6,0 UV-I 962 W/m 14,7 C 27,9 C 4,0 km/h
S (1 Bft)
0,00 %
Durchschnitt _ 21,0 C 63 % 1017,3 hPa #0,0 l/m 0,8 km/h (0 Bft) O - #12:00 h #0,000 mm 2,9 UV-I 547 W/m 12,9 C 21,0 C 1,7 km/h (1 Bft) 0,00 %